Starlink 5631

operational
NORAD ID: 55346 Int'l Des: 2023-013 Owner: SPXS Country: US Constellation: starlink
LEOCIRCULAR

关于 Starlink 5631

正在加载描述...

实时位置

正在加载3D地球...

即将过境

高度历史

Altitude vs Time

uPlot chart will show altitude changes over time

两行轨道根数

1 55346U 23013R 25258.48583387 .00000348 00000-0 40812-4 0 9994
2 55346 43.0031 172.3863 0001186 271.5412 88.5294 15.02537372145353
Epoch: Sep 15, 2025 • Age: 11 hours

当前状态

高度 563.9 km
速度 7.58 km/s
星下点 -22.77°S, 168.02°E
发射日期 Jan 26, 2023
运行时间 2.6 years
类型 internet

技术详情

分类 Payload
质量 305.00 kg
干质量 290.00 kg
总质量 305.00 kg
长度 0.20 m
直径 2.80 m
跨度 9.00 m
形状 Box + pan
制造商 SPXS
平台类型 Starlink
阶段状态 In Orbit
所有者/国家 SPXS/US

大型星座

Loading constellations...